Tracking 19489 objects as of 22-Jan-2019
HD Live streaming from Space Station
objects crossing your sky now

GALS 2

Track GALS 2 now!
GALS 2 is classified as:


NORAD ID: 23717
Int'l Code: 1995-063A
Perigee: 35,846.3 km
Apogee: 35,952.5 km
Inclination: 13.5 °
Period: 1,441.5 minutes
Semi major axis: 42270 km
RCS: 8.9125 m2 (large)
Launch date: November 17, 1995
Source: Commonwealth of Independent States (former USSR) (CIS)
Launch site: TYURATAM MISSILE AND SPACE COMPLEX (TTMTR)
aabbcc
Your satellite tracking list
Your tracking list is empty




NASA's NSSDC Master Catalog

Two Line Element Set (TLE):
1 23717U 95063A   19021.73685159 -.00000152  00000-0  00000+0 0  9998
2 23717  13.4506  23.7472 0012567 286.7182 242.7724  0.99895995 84666
Source of the keplerian elements: AFSPC